#timestamp,LO_Frequency,Hit,StdDev 
1657389615.7,286046998.5,N
1657389635.6,286047001.2,N
1657389655.4,286046998.8,N
1657389675.2,286046997.2,N
1657389695.1,286046997.3,N
1657389696.0,286046997.3,N
1657389715.8,286046995.0,N
1657389735.7,286046995.1,N
1657389755.5,286046996.3,N
1657389775.3,286046993.7,N
1657389795.2,286046993.3,N
1657389815.0,286046995.6,N
1657389815.9,286046995.6,N
1657389835.7,286046994.9,N
1657389855.6,286046996.7,N
1657389875.4,286046999.4,N
1657389895.3,286046998.4,N
1657389915.1,286046998.2,N
1657389916.0,286046998.2,N
1657389935.8,286047000.3,N
1657389955.7,286047002.5,N
1657389975.5,286047002.4,N
1657389995.3,286047002.5,N
1657390015.2,286047002.2,N
1657390035.0,286047004.4,N
1657390035.9,286047004.4,N
1657390055.8,286047001.4,N
1657390075.6,286047004.2,N
1657390095.4,286047003.6,N
1657390115.3,286047001.4,N
1657390135.1,286047002.3,N
1657390155.8,286047002.4,N
1657390175.7,286047001.9,N
1657390195.5,286047001.6,N
1657390215.4,286047002.3,N
1657390235.2,286047002.5,N
1657390255.0,286047001.6,N
1657390255.9,286047001.6,N
1657390275.8,286047001.8,N
1657390295.6,286047001.5,N
1657390315.4,286047004.2,N
1657390335.3,286047001.5,N
1657390355.1,286047001.6,N
1657390375.9,286047002.5,N
1657390395.7,286047002.4,N
1657390415.5,286047000.7,N
1657390435.4,286046998.6,N
1657390455.2,286047001.2,N
1657390475.0,286047000.8,N
1657390475.9,286047000.8,N
1657390495.8,286047000.0,N
1657390515.6,286046998.1,N
1657390535.5,286047000.2,N
1657390555.3,286046999.9,N
1657390575.1,286047002.1,N
1657390595.9,286047001.8,N
1657390615.7,286047001.3,N
1657390635.5,286047001.4,N
1657390655.4,286047001.6,N
1657390675.2,286047002.3,N
1657390695.0,286046999.7,N
1657390696.0,286046999.7,N
1657390715.8,286047000.3,N
1657390735.6,286047001.2,N
1657390755.5,286046997.1,N
1657390775.3,286046999.4,N
1657390795.1,286046999.4,N
1657390815.9,286046998.9,N
1657390835.7,286046999.3,N
1657390855.6,286047001.2,N
1657390875.4,286046998.2,N
1657390895.2,286047000.9,N
1657390915.1,286047000.5,N
1657390916.0,286047000.5,N
1657390935.8,286047001.2,N
1657390955.6,286046998.4,N
1657390975.5,286046998.3,N
1657390995.3,286047001.0,N
1657391015.2,286047002.8,N
1657391035.0,286047000.5,N
1657391035.9,286047000.5,N
1657391055.7,286047000.0,N
1657391075.6,286047004.3,Y
1657391095.4,286047003.6,P
1657391115.3,286047003.0,N
1657391135.1,286047002.9,N
1657391155.8,286047002.9,N
1657391175.7,286047000.2,N
1657391195.5,286047000.8,N
1657391215.4,286046999.2,N
1657391235.2,286046997.0,N
1657391255.0,286046996.9,N
1657391255.9,286046996.9,N
1657391275.8,286046996.7,N
1657391295.6,286046996.6,N
1657391315.4,286046999.2,N
1657391335.3,286047000.3,N
1657391355.1,286047000.8,N
1657391375.9,286047000.6,N
1657391395.7,286047002.8,N
1657391415.5,286047002.5,N
1657391435.4,286047003.8,N
1657391455.2,286047001.6,N
1657391475.1,286047001.5,N
1657391476.0,286047001.5,N
1657391495.8,286047002.2,N
1657391515.6,286047002.4,N
1657391535.5,286047002.4,N
1657391555.3,286047002.2,N
1657391575.1,286047002.2,N
1657391595.9,286047003.9,N
1657391615.7,286047001.7,N
1657391635.6,286047001.3,N
1657391655.4,286047004.3,N
1657391675.2,286047004.0,N
1657391695.1,286047001.4,N
1657391696.0,286047001.4,N
1657391715.8,286047001.3,N
1657391735.7,286047002.9,N
1657391755.5,286047003.1,N
1657391775.3,286047005.7,N
1657391795.2,286047007.2,Y
1657391815.0,286047005.9,P
1657391815.9,286047005.9,N
1657391835.8,286047004.6,N
1657391855.6,286047005.4,N
1657391875.4,286047005.9,Y
1657391895.3,286046997.3,P
1657391915.1,286046996.1,N
1657391935.9,286046995.9,N
1657391955.7,286046995.9,N
1657391975.5,286046994.5,N
1657391995.4,286046994.1,N
1657392015.2,286046994.6,N
1657392035.0,286046994.5,N
1657392035.9,286046994.5,N
1657392055.8,286046992.5,N
1657392075.6,286046992.1,N
1657392095.5,286046993.1,N
1657392115.3,286046991.3,N
1657392135.1,286046990.3,Y
1657392155.9,286046997.2,P
1657392175.7,286046996.6,P
1657392195.6,286047000.9,N
1657392215.4,286047001.2,N
1657392235.2,286047001.1,N
1657392255.1,286046997.4,N
1657392256.0,286046997.4,N
1657392275.8,286046993.6,N
1657392295.7,286046996.4,N
1657392315.5,286046995.1,N
1657392335.3,286046996.7,N
1657392355.2,286046997.6,N
1657392375.0,286046995.0,N
1657392375.9,286046995.0,N
1657392395.7,286046996.0,N
1657392415.6,286046993.7,N
1657392435.4,286046995.9,N
1657392455.3,286046997.4,N
1657392475.1,286046998.8,N
1657392476.0,286046998.8,N
1657392495.8,286046996.9,N
1657392515.7,286046997.8,N
1657392535.5,286046997.6,N
1657392555.3,286046996.7,N
1657392575.2,286046999.2,N
1657392595.0,286047000.9,N
1657392595.9,286047000.9,N
1657392615.8,286047000.3,N
1657392635.6,286047002.6,N
1657392655.4,286047001.3,N
1657392675.3,286047003.8,N
1657392695.1,286047001.7,N
1657392715.8,286047001.6,N
1657392735.7,286047001.3,N
1657392755.5,286047004.1,N
1657392775.4,286047006.0,N
1657392795.2,286047003.1,N
1657392815.0,286047001.6,N
1657392815.9,286047001.6,N
1657392835.8,286047001.5,N
1657392855.6,286047002.5,N
1657392875.4,286047002.2,N
1657392895.3,286047001.5,N
1657392915.1,286047001.4,N
1657392935.9,286047001.9,N
1657392955.7,286047004.4,N
1657392975.5,286047001.4,N
1657392995.4,286047003.7,N
1657393015.2,286047003.5,N
1657393035.0,286047004.2,N
1657393035.9,286047004.2,N
1657393055.8,286047003.7,N
1657393075.6,286047002.5,N
1657393095.5,286047001.4,N
1657393115.3,286047004.0,N
1657393135.1,286047001.3,N
1657393155.9,286047004.1,Y
1657393175.7,286047002.3,P
1657393195.5,286046999.9,N
